Home   Weather   Bloomington   Past weeks
Flag for USA

Past Weather in Bloomington, Illinois, USA — Yesterday and Last 2 Weeks

Now
80 °F

Sunny.


Feels Like: 82 °F
Forecast: 86 / 67 °F
Wind: 13 mph from Southwest

Location: Bloomington / Normal

Current Time: Jun 25, 2019 at 9:13:29 pm

Latest Report: Jun 25, 2019 at 7:56 pm


Visibility: 10 mi

Pressure: 29.91 "Hg

Humidity: 56%

Dew Point: 63 °F

Location of BloomingtonLocation

Past Weather in Bloomington — Graph

°F

Bloomington Temperature Yesterday

Maximum temperature yesterday: 76 °F (at 1:56 pm)
Minimum temperature yesterday: 66 °F (at 10:56 pm)
Average temperature yesterday: 70 °F

High & Low Weather Summary for the Past Weeks

 TemperatureHumidityPressure
High84 °F (Jun 25, 4:56 pm)100% (Jun 12, 10:17 pm)30.21 "Hg (Jun 12, 10:17 pm)
Low50 °F (Jun 14, 4:56 am)21% (Jun 11, 3:56 pm)29.58 "Hg (Jun 20, 1:56 am)
Average67 °F79%29.89 "Hg
* Reported Jun 10 7:56 pm — Jun 25 7:56 pm, Bloomington. Weather by CustomWeather, © 2019

Note: Actual official high and low records may vary slightly from our data, if they occured in-between our weather recording intervals... More about our weather records

Advertising

Bloomington Weather History for the Previous 24 Hours

Scroll right to see more
 ConditionsComfort  
Time TempWeatherWind HumidityBarometerVisibility
7:56 pm
Tue, Jun 25
80 °FSunny.13 mph56%29.91 "Hg10 mi
6:56 pm82 °FSunny.17 mph51%29.91 "Hg10 mi
5:56 pm84 °FSunny.17 mph48%29.91 "Hg10 mi
4:56 pm84 °FSunny.23 mph48%29.90 "Hg10 mi
3:56 pm83 °FSunny.25 mph50%29.90 "Hg10 mi
2:56 pm83 °FSunny.22 mph51%29.90 "Hg10 mi
1:56 pm82 °FSunny.23 mph51%29.92 "Hg10 mi
12:56 pm81 °FSunny.18 mph51%29.92 "Hg10 mi
11:56 am80 °FSunny.21 mph56%29.95 "Hg10 mi
10:56 am78 °FSunny.16 mph62%29.94 "Hg10 mi
9:56 am75 °FSunny.15 mph66%29.95 "Hg10 mi
8:56 am72 °FSunny.13 mph73%29.95 "Hg10 mi
7:56 am68 °FSunny.12 mph78%29.94 "Hg10 mi
6:56 am64 °FSunny.12 mph84%29.91 "Hg10 mi
5:56 am62 °FSunny.9 mph90%29.89 "Hg10 mi
4:56 am61 °FClear.9 mph90%29.87 "Hg10 mi
3:56 am62 °FClear.10 mph90%29.85 "Hg10 mi
2:56 am62 °FClear.9 mph90%29.85 "Hg10 mi
1:56 am62 °FClear.9 mph93%29.84 "Hg10 mi
12:56 am63 °FClear.8 mph87%29.83 "Hg10 mi
11:56 pm
Mon, Jun 24
66 °FClear.9 mph78%29.82 "Hg10 mi
10:56 pm66 °FClear.9 mph78%29.81 "Hg10 mi
9:56 pm68 °FClear.9 mph73%29.80 "Hg10 mi
Weather by CustomWeather, © 2019

See weather overview